Weather History for Rolla, MO

Change the Weather History Date:

Tuesday, April 22, 2014

  Actual Average Record
Temperature  
Mean Temperature 56 °F 57 °F  
Max Temperature 68 °F 69 °F 93 °F (1965)
Min Temperature 44 °F 46 °F 33 °F (2000)
Degree Days  
Heating Degree Days 9 9  
Month to date heating degree days 246 255  
Since 1 July heating degree days 5303 4659  
Cooling Degree Days 0 1  
Month to date cooling degree days 8 16  
Year to date cooling degree days 8 20  
Growing Degree Days 7 (Base 50)    
Moisture  
Dew Point 40 °F    
Average Humidity 60    
Maximum Humidity 93    
Minimum Humidity 26    
Precipitation  
Precipitation 0.00 in 0.14 in 1.17 in (1944)
Month to date precipitation 2.19 2.99  
Year to date precipitation 4.36 10.54  
Sea Level Pressure  
Sea Level Pressure 30.00 in    
Wind  
Wind Speed 8 mph (NNW)    
Max Wind Speed 16 mph    
Max Gust Speed 29 mph    
Visibility 10 miles    
Events      
T = Trace of Precipitation, MM = Missing Value Source: NWS Daily Summary

Daily Weather History Graph

Daily Weather History Graph

Search for Another Location

Airport:

Trip Planner

Search our weather history database for the weather conditions in past years. The results will help you decide how hot, cold, wet, or windy it might be!

Date:

Astronomy

Apr. 22, 2014 Rise Set
Actual Time 6:21 AM CDT 7:49 PM CDT
Civil Twilight 5:54 AM CDT 8:17 PM CDT
Nautical Twilight 5:21 AM CDT 8:50 PM CDT
Astronomical Twilight 4:46 AM CDT 9:26 PM CDT
Moon 2:04 AM CDT (4/22) 12:57 PM CDT (4/22)
Length of Visible Light 14h 23m
Length of Day
13h 27m
Last Quarter, 46% of the Moon is Illuminated
Apr 22
Last Quarter
Apr 29
New
May 6
First Quarter
May 14
Full
May 21
Last Quarter

Hourly Weather History & Observations

Time (CDT) Temp. Dew Point Humidity Pressure Visibility Wind Dir Wind Speed Gust Speed Precip Events Conditions
12:53 AM 61.0 °F 57.9 °F 90% 29.93 in 9.0 mi NNW 9.2 mph - N/A   Partly Cloudy
1:53 AM 57.9 °F 54.0 °F 87% 29.94 in 10.0 mi North 8.1 mph - N/A   Partly Cloudy
2:53 AM 55.9 °F 53.1 °F 90% 29.95 in 10.0 mi NNW 10.4 mph - N/A   Clear
3:53 AM 54.0 °F 50.0 °F 86% 29.96 in 10.0 mi North 9.2 mph - N/A   Clear
4:53 AM 51.8 °F 44.6 °F 76% 29.99 in 10.0 mi North 11.5 mph - N/A   Clear
5:53 AM 48.0 °F 43.0 °F 83% 30.00 in 10.0 mi NNW 8.1 mph - N/A   Clear
6:53 AM 46.9 °F 41.0 °F 80% 30.03 in 10.0 mi NNW 12.7 mph - N/A   Clear
7:53 AM 48.9 °F 41.0 °F 74% 30.04 in 10.0 mi NNW 11.5 mph - N/A   Clear
8:53 AM 53.1 °F 42.1 °F 66% 30.04 in 10.0 mi North 12.7 mph - N/A   Clear
9:53 AM 55.9 °F 41.0 °F 57% 30.04 in 10.0 mi North 9.2 mph - N/A   Clear
10:53 AM 57.9 °F 39.9 °F 51% 30.06 in 10.0 mi NNW 9.2 mph - N/A   Clear
11:53 AM 61.0 °F 39.9 °F 46% 30.04 in 10.0 mi Variable 6.9 mph - N/A   Clear
12:53 PM 64.0 °F 39.0 °F 40% 30.02 in 10.0 mi North 9.2 mph 17.3 mph N/A   Clear
1:53 PM 64.0 °F 37.9 °F 38% 30.02 in 10.0 mi NNW 9.2 mph - N/A   Clear
2:53 PM 66.9 °F 35.1 °F 31% 30.01 in 10.0 mi North 12.7 mph 19.6 mph N/A   Clear
3:53 PM 68.0 °F 35.1 °F 30% 29.99 in 10.0 mi North 12.7 mph - N/A   Clear
4:53 PM 66.9 °F 33.1 °F 28% 29.99 in - NNW 13.8 mph - N/A   Unknown
5:53 PM 66.0 °F 30.9 °F 27% 29.99 in 10.0 mi NNW 8.1 mph - N/A   Clear
6:53 PM 63.0 °F 35.1 °F 35% 29.98 in 10.0 mi NNW 8.1 mph - N/A   Clear
7:53 PM 57.9 °F 34.0 °F 41% 29.98 in 10.0 mi NNW 5.8 mph - N/A   Clear
8:53 PM 53.1 °F 34.0 °F 48% 30.00 in 10.0 mi North 3.5 mph - N/A   Clear
9:53 PM 52.0 °F 34.0 °F 50% 30.01 in 10.0 mi Calm Calm - N/A   Clear
10:53 PM 46.9 °F 34.0 °F 61% 30.00 in 10.0 mi Calm Calm - N/A   Clear
11:53 PM 46.9 °F 34.0 °F 61% 30.01 in 10.0 mi NE 3.5 mph - N/A   Clear